| time (UTC) | temp C | wind direction | speed KPH | gust KPH | rain 1hr cm | rain 24hr cm | rain mn cm | humidity % | barometer mb |
| 20260503213014 | 32 | 325 | 3.2 | 6.4 | 0.00 | 0.00 | 0.00 | 29 | 1006.5 |
| 20260503212514 | 32 | 348 | 0.0 | 6.4 | 0.00 | 0.00 | 0.00 | 28 | 1006.5 |
| 20260503212013 | 32 | 9 | 3.2 | 6.4 | 0.00 | 0.00 | 0.00 | 28 | 1006.6 |
| 20260503211512 | 32 | 303 | 1.6 | 6.4 | 0.00 | 0.00 | 0.00 | 29 | 1006.6 |
| 20260503211010 | 32 | 303 | 0.0 | 6.4 | 0.00 | 0.00 | 0.00 | 31 | 1006.6 |
| 20260503210514 | 32 | 303 | 3.2 | 6.4 | 0.00 | 0.00 | 0.00 | 30 | 1006.8 |
| 20260503210008 | 31 | 303 | 0.0 | 9.7 | 0.00 | 0.00 | 0.00 | 29 | 1006.7 |
| 20260503205507 | 31 | 303 | 3.2 | 11.3 | 0.00 | 0.00 | 0.00 | 31 | 1006.9 |
| 20260503205006 | 31 | 336 | 1.6 | 6.4 | 0.00 | 0.00 | 0.00 | 30 | 1006.9 |
| 20260503204504 | 31 | 336 | 1.6 | 6.4 | 0.00 | 0.00 | 0.00 | 32 | 1006.9 |
| 20260503204002 | 31 | 336 | 3.2 | 9.7 | 0.00 | 0.00 | 0.00 | 32 | 1007.0 |
| 20260503203503 | 31 | 355 | 3.2 | 11.3 | 0.00 | 0.00 | 0.00 | 33 | 1007.1 |
| 20260503203001 | 31 | 292 | 1.6 | 11.3 | 0.00 | 0.00 | 0.00 | 35 | 1007.1 |
| 20260503202600 | 31 | 297 | 1.6 | 11.3 | 0.00 | 0.00 | 0.00 | 35 | 1007.2 |
| 20260503202059 | 31 | 297 | 6.4 | 11.3 | 0.00 | 0.00 | 0.00 | 33 | 1007.2 |
| 20260503201604 | 30 | 346 | 1.6 | 8.0 | 0.00 | 0.00 | 0.00 | 33 | 1007.3 |
| 20260503201057 | 30 | 313 | 3.2 | 9.7 | 0.00 | 0.00 | 0.00 | 35 | 1007.3 |
| 20260503200557 | 30 | 21 | 4.8 | 9.7 | 0.00 | 0.00 | 0.00 | 32 | 1007.4 |
| 20260503200100 | 30 | 306 | 4.8 | 11.3 | 0.00 | 0.00 | 0.00 | 34 | 1007.5 |
| 20260503195555 | 30 | 355 | 3.2 | 8.0 | 0.00 | 0.00 | 0.00 | 35 | 1007.5 |
| 20260503195057 | 30 | 330 | 3.2 | 8.0 | 0.00 | 0.00 | 0.00 | 35 | 1007.6 |
| 20260503194555 | 30 | 330 | 3.2 | 9.7 | 0.00 | 0.00 | 0.00 | 35 | 1007.6 |
| 20260503194053 | 30 | 305 | 4.8 | 9.7 | 0.00 | 0.00 | 0.00 | 34 | 1007.7 |
| 20260503193554 | 30 | 12 | 3.2 | 9.7 | 0.00 | 0.00 | 0.00 | 33 | 1007.7 |
| 20260503193056 | 30 | 310 | 3.2 | 9.7 | 0.00 | 0.00 | 0.00 | 37 | 1007.7 |
| 20260503192551 | 30 | 311 | 1.6 | 9.7 | 0.00 | 0.00 | 0.00 | 40 | 1007.8 |
| 20260503192050 | 29 | 311 | 3.2 | 9.7 | 0.00 | 0.00 | 0.00 | 40 | 1007.9 |
| 20260503191554 | 29 | 311 | 3.2 | 9.7 | 0.00 | 0.00 | 0.00 | 39 | 1007.9 |
| 20260503191049 | 28 | 308 | 4.8 | 9.7 | 0.00 | 0.00 | 0.00 | 40 | 1008.0 |
| 20260503190548 | 28 | 302 | 3.2 | 8.0 | 0.00 | 0.00 | 0.00 | 42 | 1008.1 |
| 20260503190045 | 28 | 302 | 1.6 | 9.7 | 0.00 | 0.00 | 0.00 | 41 | 1008.2 |
| 20260503185549 | 28 | 300 | 3.2 | 9.7 | 0.00 | 0.00 | 0.00 | 39 | 1008.3 |
| 20260503185045 | 28 | 355 | 1.6 | 8.0 | 0.00 | 0.00 | 0.00 | 42 | 1008.3 |
| 20260503184555 | 28 | 296 | 3.2 | 8.0 | 0.00 | 0.00 | 0.00 | 42 | 1008.4 |
| 20260503184045 | 28 | 346 | 1.6 | 6.4 | 0.00 | 0.00 | 0.00 | 41 | 1008.5 |
| 20260503183542 | 28 | 349 | 0.0 | 6.4 | 0.00 | 0.00 | 0.00 | 43 | 1008.5 |
| 20260503183058 | 28 | 349 | 1.6 | 6.4 | 0.00 | 0.00 | 0.00 | 43 | 1008.6 |
| 20260503182540 | 27 | 319 | 1.6 | 4.8 | 0.00 | 0.00 | 0.00 | 41 | 1008.6 |
| 20260503182040 | 28 | 319 | 1.6 | 4.8 | 0.00 | 0.00 | 0.00 | 42 | 1008.6 |
| 20260503181540 | 28 | 319 | 1.6 | 4.8 | 0.00 | 0.00 | 0.00 | 44 | 1008.7 |
| 20260503181039 | 28 | 319 | 1.6 | 8.0 | 0.00 | 0.00 | 0.00 | 43 | 1008.8 |
| 20260503180540 | 28 | 319 | 3.2 | 8.0 | 0.00 | 0.00 | 0.00 | 42 | 1008.8 |
| 20260503180042 | 28 | 319 | 1.6 | 6.4 | 0.00 | 0.00 | 0.00 | 44 | 1008.8 |
| 20260503175537 | 27 | 319 | 0.0 | 4.8 | 0.00 | 0.00 | 0.00 | 43 | 1008.9 |
| 20260503175039 | 28 | 319 | 1.6 | 6.4 | 0.00 | 0.00 | 0.00 | 43 | 1008.9 |
| 20260503174536 | 28 | 319 | 1.6 | 8.0 | 0.00 | 0.00 | 0.00 | 44 | 1008.9 |
| 20260503174033 | 27 | 319 | 1.6 | 8.0 | 0.00 | 0.00 | 0.00 | 45 | 1009.0 |
| 20260503173533 | 27 | 323 | 0.0 | 4.8 | 0.00 | 0.00 | 0.00 | 44 | 1009.1 |
| 20260503173059 | 27 | 322 | 1.6 | 6.4 | 0.00 | 0.00 | 0.00 | 44 | 1009.0 |
| 20260503172535 | 27 | 322 | 0.0 | 6.4 | 0.00 | 0.00 | 0.00 | 45 | 1009.2 |
| 20260503172031 | 27 | 300 | 0.0 | 6.4 | 0.00 | 0.00 | 0.00 | 47 | 1009.1 |
| 20260503171531 | 26 | 300 | 3.2 | 6.4 | 0.00 | 0.00 | 0.00 | 47 | 1009.1 |
| 20260503171030 | 26 | 300 | 1.6 | 4.8 | 0.00 | 0.00 | 0.00 | 44 | 1009.1 |
| 20260503170529 | 26 | 300 | 0.0 | 8.0 | 0.00 | 0.00 | 0.00 | 47 | 1009.1 |
| 20260503150603 | 14 | 133 | 0.0 | 3.2 | 0.00 | 0.00 | 0.00 | 87 | 1009.6 |
| 20260503150105 | 13 | 133 | 0.0 | 3.2 | 0.00 | 0.00 | 0.00 | 87 | 1009.6 |
| 20260503131053 | 11 | 133 | 0.0 | 1.6 | 0.00 | 0.00 | 0.00 | 91 | 1009.2 |
| 20260503130553 | 11 | 133 | 0.0 | 3.2 | 0.00 | 0.00 | 0.00 | 91 | 1009.2 |
| 20260503110541 | 12 | 133 | 0.0 | 0.0 | 0.00 | 0.00 | 0.00 | 89 | 1009.5 |
| 20260503081521 | 13 | 133 | 0.0 | 0.0 | 0.00 | 0.00 | 0.00 | 82 | 1010.0 |
| 20260503081021 | 13 | 133 | 0.0 | 0.0 | 0.00 | 0.00 | 0.00 | 84 | 1010.0 |
| 20260503080521 | 14 | 133 | 0.0 | 0.0 | 0.00 | 0.00 | 0.00 | 84 | 1010.0 |
| 20260503072516 | 14 | 133 | 0.0 | 3.2 | 0.00 | 0.00 | 0.00 | 85 | 1010.1 |
| 20260503072015 | 14 | 133 | 1.6 | 3.2 | 0.00 | 0.00 | 0.00 | 85 | 1010.1 |
| 20260503071515 | 14 | 133 | 0.0 | 0.0 | 0.00 | 0.00 | 0.00 | 84 | 1009.9 |
| 20260503071014 | 15 | 133 | 0.0 | 0.0 | 0.00 | 0.00 | 0.00 | 84 | 1010.0 |
| 20260503070512 | 15 | 133 | 0.0 | 0.0 | 0.00 | 0.00 | 0.00 | 84 | 1010.0 |
| 20260503055008 | 16 | 133 | 0.0 | 0.0 | 0.00 | 0.00 | 0.00 | 79 | 1009.6 |
| 20260503054509 | 16 | 133 | 0.0 | 3.2 | 0.00 | 0.00 | 0.00 | 80 | 1009.6 |
| 20260503054008 | 16 | 133 | 0.0 | 4.8 | 0.00 | 0.00 | 0.00 | 78 | 1009.6 |
| 20260503053508 | 16 | 133 | 1.6 | 6.4 | 0.00 | 0.00 | 0.00 | 81 | 1009.6 |
| 20260503053008 | 16 | 133 | 3.2 | 6.4 | 0.00 | 0.00 | 0.00 | 81 | 1009.6 |
| 20260503052511 | 16 | 133 | 1.6 | 3.2 | 0.00 | 0.00 | 0.00 | 80 | 1009.8 |
| 20260503052008 | 16 | 133 | 1.6 | 3.2 | 0.00 | 0.00 | 0.00 | 79 | 1009.9 |
| 20260503051508 | 16 | 133 | 0.0 | 0.0 | 0.00 | 0.00 | 0.00 | 78 | 1010.2 |
| 20260503051008 | 16 | 133 | 0.0 | 0.0 | 0.00 | 0.00 | 0.00 | 75 | 1010.3 |
| 20260503050508 | 16 | 133 | 0.0 | 0.0 | 0.00 | 0.00 | 0.00 | 79 | 1010.4 |
| 20260503050007 | 16 | 133 | 0.0 | 0.0 | 0.00 | 0.00 | 0.00 | 78 | 1010.3 |
| 20260503045507 | 16 | 133 | 0.0 | 4.8 | 0.00 | 0.00 | 0.00 | 78 | 1010.2 |
| 20260503045008 | 16 | 133 | 0.0 | 4.8 | 0.00 | 0.00 | 0.00 | 78 | 1010.1 |
| 20260503044507 | 16 | 133 | 3.2 | 4.8 | 0.00 | 0.00 | 0.00 | 78 | 1010.2 |
| 20260503044005 | 16 | 133 | 0.0 | 4.8 | 0.00 | 0.00 | 0.00 | 78 | 1010.0 |
| 20260503043505 | 17 | 133 | 1.6 | 4.8 | 0.00 | 0.00 | 0.00 | 77 | 1010.0 |
| 20260503043008 | 17 | 133 | 3.2 | 4.8 | 0.00 | 0.00 | 0.00 | 77 | 1010.0 |
| 20260503042505 | 17 | 133 | 1.6 | 3.2 | 0.00 | 0.00 | 0.00 | 76 | 1010.1 |
| 20260503042006 | 17 | 133 | 0.0 | 3.2 | 0.00 | 0.00 | 0.00 | 75 | 1010.2 |
| 20260503041510 | 17 | 133 | 0.0 | 4.8 | 0.00 | 0.00 | 0.00 | 76 | 1010.2 |
| 20260503041010 | 17 | 133 | 1.6 | 4.8 | 0.00 | 0.00 | 0.00 | 76 | 1010.2 |
| 20260503040507 | 17 | 133 | 0.0 | 1.6 | 0.00 | 0.00 | 0.00 | 75 | 1010.3 |
| 20260503040005 | 17 | 133 | 0.0 | 4.8 | 0.00 | 0.00 | 0.00 | 74 | 1010.2 |
| 20260503035508 | 17 | 133 | 1.6 | 4.8 | 0.00 | 0.00 | 0.00 | 75 | 1010.0 |
| 20260503035005 | 17 | 133 | 0.0 | 3.2 | 0.00 | 0.00 | 0.00 | 74 | 1010.1 |
| 20260503034513 | 17 | 133 | 0.0 | 4.8 | 0.00 | 0.00 | 0.00 | 74 | 1010.2 |
| 20260503034007 | 18 | 133 | 3.2 | 4.8 | 0.00 | 0.00 | 0.00 | 74 | 1009.9 |
| 20260503033506 | 18 | 133 | 0.0 | 3.2 | 0.00 | 0.00 | 0.00 | 74 | 1009.9 |
| 20260503033004 | 18 | 133 | 1.6 | 3.2 | 0.00 | 0.00 | 0.00 | 72 | 1009.9 |
| 20260503032503 | 18 | 133 | 0.0 | 3.2 | 0.00 | 0.00 | 0.00 | 72 | 1009.9 |
| 20260503032003 | 18 | 133 | 0.0 | 3.2 | 0.00 | 0.00 | 0.00 | 72 | 1009.9 |
| 20260503031504 | 19 | 133 | 0.0 | 0.0 | 0.00 | 0.00 | 0.00 | 70 | 1009.8 |
| 20260503031004 | 19 | 133 | 0.0 | 0.0 | 0.00 | 0.00 | 0.00 | 70 | 1009.8 |
| 20260503030504 | 19 | 133 | 0.0 | 3.2 | 0.00 | 0.00 | 0.00 | 69 | 1009.9 |
| 20260503030003 | 19 | 133 | 0.0 | 4.8 | 0.00 | 0.00 | 0.00 | 70 | 1009.9 |
| 20260503025503 | 19 | 133 | 0.0 | 4.8 | 0.00 | 0.00 | 0.00 | 70 | 1009.9 |
| 20260503025003 | 19 | 133 | 1.6 | 11.3 | 0.00 | 0.00 | 0.00 | 70 | 1009.8 |
| 20260503024506 | 19 | 132 | 0.0 | 11.3 | 0.00 | 0.00 | 0.00 | 70 | 1009.9 |
| 20260503024002 | 19 | 140 | 1.6 | 14.5 | 0.00 | 0.00 | 0.00 | 70 | 1009.9 |
| 20260503023502 | 19 | 168 | 4.8 | 14.5 | 0.00 | 0.00 | 0.00 | 69 | 1009.9 |
| 20260503023002 | 20 | 135 | 4.8 | 14.5 | 0.00 | 0.00 | 0.00 | 68 | 1009.8 |
| 20260503022501 | 20 | 74 | 4.8 | 24.1 | 0.00 | 0.00 | 0.00 | 66 | 1009.8 |
| 20260503022003 | 21 | 167 | 4.8 | 24.1 | 0.00 | 0.00 | 0.00 | 65 | 1009.8 |
| 20260503021501 | 21 | 158 | 6.4 | 19.3 | 0.00 | 0.00 | 0.00 | 64 | 1009.7 |
| 20260503021001 | 22 | 167 | 3.2 | 12.9 | 0.00 | 0.00 | 0.00 | 63 | 1009.6 |
| 20260503020501 | 22 | 140 | 1.6 | 9.7 | 0.00 | 0.00 | 0.00 | 62 | 1009.2 |
| 20260503020001 | 22 | 117 | 0.0 | 9.7 | 0.00 | 0.00 | 0.00 | 62 | 1009.0 |
| 20260503015501 | 22 | 117 | 1.6 | 9.7 | 0.00 | 0.00 | 0.00 | 62 | 1008.9 |
| 20260503015100 | 22 | 117 | 3.2 | 9.7 | 0.00 | 0.00 | 0.00 | 61 | 1008.9 |
| 20260503014624 | 22 | 256 | 0.0 | 4.8 | 0.00 | 0.00 | 0.00 | 61 | 1008.8 |
| 20260503014100 | 22 | 256 | 1.6 | 3.2 | 0.00 | 0.00 | 0.00 | 61 | 1008.8 |
| 20260503013559 | 23 | 256 | 0.0 | 3.2 | 0.00 | 0.00 | 0.00 | 61 | 1008.8 |
| 20260503013100 | 23 | 256 | 0.0 | 1.6 | 0.00 | 0.00 | 0.00 | 61 | 1008.7 |
| 20260503012600 | 23 | 256 | 0.0 | 1.6 | 0.00 | 0.00 | 0.00 | 62 | 1008.7 |
| 20260503012059 | 22 | 256 | 0.0 | 0.0 | 0.00 | 0.00 | 0.00 | 62 | 1008.7 |
| 20260503011559 | 22 | 256 | 0.0 | 0.0 | 0.00 | 0.00 | 0.00 | 62 | 1008.7 |
| 20260503011058 | 22 | 256 | 0.0 | 1.6 | 0.00 | 0.00 | 0.00 | 61 | 1008.8 |
| 20260503010558 | 23 | 256 | 0.0 | 3.2 | 0.00 | 0.00 | 0.00 | 60 | 1008.7 |
| 20260503010058 | 23 | 256 | 0.0 | 4.8 | 0.00 | 0.00 | 0.00 | 60 | 1008.8 |
| 20260503005558 | 23 | 256 | 1.6 | 4.8 | 0.00 | 0.00 | 0.00 | 60 | 1008.8 |
| 20260503005102 | 23 | 256 | 0.0 | 4.8 | 0.00 | 0.00 | 0.00 | 59 | 1008.8 |
| 20260503004558 | 23 | 256 | 1.6 | 4.8 | 0.00 | 0.00 | 0.00 | 59 | 1008.8 |
| 20260503004100 | 23 | 256 | 3.2 | 4.8 | 0.00 | 0.00 | 0.00 | 59 | 1008.9 |
| 20260503003557 | 23 | 256 | 0.0 | 4.8 | 0.00 | 0.00 | 0.00 | 61 | 1008.8 |
| 20260503003058 | 23 | 256 | 1.6 | 4.8 | 0.00 | 0.00 | 0.00 | 59 | 1008.8 |
| 20260503002556 | 23 | 256 | 0.0 | 4.8 | 0.00 | 0.00 | 0.00 | 59 | 1008.9 |
| 20260503002056 | 23 | 256 | 1.6 | 4.8 | 0.00 | 0.00 | 0.00 | 57 | 1008.9 |
| 20260503001556 | 23 | 255 | 0.0 | 4.8 | 0.00 | 0.00 | 0.00 | 58 | 1008.9 |
| 20260503001056 | 24 | 238 | 0.0 | 4.8 | 0.00 | 0.00 | 0.00 | 58 | 1009.0 |
| 20260503000555 | 23 | 238 | 1.6 | 3.2 | 0.00 | 0.00 | 0.00 | 59 | 1008.9 |
| 20260503000055 | 23 | 210 | 0.0 | 6.4 | 0.00 | 0.00 | 0.00 | 60 | 1008.9 |
| 20260502235554 | 23 | 210 | 1.6 | 8.0 | 0.00 | 0.00 | 0.00 | 59 | 1008.9 |
| 20260502235053 | 23 | 210 | 1.6 | 8.0 | 0.00 | 0.00 | 0.00 | 60 | 1009.0 |
| 20260502234554 | 23 | 220 | 1.6 | 6.4 | 0.00 | 0.00 | 0.00 | 59 | 1009.1 |
| 20260502234052 | 23 | 222 | 0.0 | 6.4 | 0.00 | 0.00 | 0.00 | 60 | 1009.1 |
| 20260502233552 | 23 | 222 | 1.6 | 6.4 | 0.00 | 0.00 | 0.00 | 57 | 1009.1 |
| 20260502233050 | 23 | 222 | 1.6 | 6.4 | 0.00 | 0.00 | 0.00 | 60 | 1009.3 |
| 20260502232550 | 23 | 223 | 1.6 | 9.7 | 0.00 | 0.00 | 0.00 | 57 | 1009.3 |
| 20260502232050 | 23 | 305 | 0.0 | 9.7 | 0.00 | 0.00 | 0.00 | 57 | 1009.2 |
| 20260502231601 | 23 | 306 | 1.6 | 9.7 | 0.00 | 0.00 | 0.00 | 58 | 1009.3 |
| 20260502231049 | 23 | 310 | 4.8 | 9.7 | 0.00 | 0.00 | 0.00 | 56 | 1009.4 |
| 20260502230548 | 23 | 308 | 1.6 | 6.4 | 0.00 | 0.00 | 0.00 | 57 | 1009.4 |
| 20260502230047 | 23 | 308 | 1.6 | 9.7 | 0.00 | 0.00 | 0.00 | 59 | 1009.6 |
| 20260502225545 | 23 | 308 | 3.2 | 9.7 | 0.00 | 0.00 | 0.00 | 58 | 1009.7 |
| 20260502225046 | 23 | 293 | 0.0 | 3.2 | 0.00 | 0.00 | 0.00 | 60 | 1009.7 |
| 20260502224545 | 23 | 293 | 0.0 | 6.4 | 0.00 | 0.00 | 0.00 | 60 | 1009.8 |
| 20260502224043 | 23 | 293 | 0.0 | 6.4 | 0.00 | 0.00 | 0.00 | 61 | 1009.8 |
| 20260502223543 | 22 | 293 | 1.6 | 8.0 | 0.00 | 0.00 | 0.00 | 61 | 1010.0 |
| 20260502223041 | 22 | 296 | 0.0 | 9.7 | 0.00 | 0.00 | 0.00 | 62 | 1010.1 |
| 20260502222541 | 22 | 306 | 3.2 | 8.0 | 0.00 | 0.00 | 0.00 | 61 | 1010.1 |
| 20260502222044 | 22 | 306 | 1.6 | 6.4 | 0.00 | 0.00 | 0.00 | 61 | 1010.1 |
| 20260502221539 | 22 | 306 | 0.0 | 6.4 | 0.00 | 0.00 | 0.00 | 61 | 1010.2 |
| 20260502221041 | 22 | 306 | 0.0 | 8.0 | 0.00 | 0.00 | 0.00 | 61 | 1010.4 |
| 20260502220538 | 22 | 296 | 1.6 | 8.0 | 0.00 | 0.00 | 0.00 | 61 | 1010.5 |
| 20260502220041 | 22 | 246 | 0.0 | 8.0 | 0.00 | 0.00 | 0.00 | 65 | 1010.6 |
| 20260502215535 | 21 | 211 | 1.6 | 8.0 | 0.00 | 0.00 | 0.00 | 66 | 1010.7 |
| 20260502215033 | 21 | 313 | 0.0 | 6.4 | 0.00 | 0.00 | 0.00 | 65 | 1010.7 |
| 20260502214537 | 20 | 313 | 1.6 | 6.4 | 0.00 | 0.00 | 0.00 | 65 | 1010.8 |
| 20260502214032 | 20 | 316 | 1.6 | 6.4 | 0.00 | 0.00 | 0.00 | 68 | 1010.8 |
| 20260502213531 | 20 | 301 | 1.6 | 6.4 | 0.00 | 0.00 | 0.00 | 67 | 1010.9 |